| time (UTC) | temp F | wind direction | speed MPH | gust MPH | rain 1hr in | rain 24hr in | rain mn in | humidity % | barometer mb |
| 20260509050006 | 75 | 275 | 2.0 | 5.0 | 0.00 | 0.00 | 0.00 | 79 | 1012.5 |
| 20260509045008 | 75 | 232 | 2.0 | 6.0 | 0.00 | 0.00 | 0.00 | 77 | 1012.6 |
| 20260509044005 | 74 | 233 | 1.0 | 6.0 | 0.00 | 0.00 | 0.00 | 77 | 1012.8 |
| 20260509043006 | 74 | 261 | 2.0 | 3.0 | 0.00 | 0.00 | 0.00 | 76 | 1012.7 |
| 20260509042007 | 74 | 305 | 1.0 | 3.0 | 0.00 | 0.00 | 0.00 | 78 | 1012.4 |
| 20260509040005 | 74 | 172 | 0.0 | 1.0 | 0.00 | 0.00 | 0.00 | 79 | 1012.2 |
| 20260509031006 | 75 | 94 | 1.0 | 2.0 | 0.00 | 0.00 | 0.00 | 81 | 1012.1 |
| 20260509030006 | 75 | 105 | 0.0 | 2.0 | 0.00 | 0.00 | 0.00 | 82 | 1012.1 |
| 20260509025006 | 75 | 100 | 1.0 | 3.0 | 0.00 | 0.00 | 0.00 | 82 | 1012.0 |
| 20260509024006 | 75 | 78 | 0.0 | 2.0 | 0.00 | 0.00 | 0.00 | 83 | 1012.0 |
| 20260509023006 | 76 | 141 | 0.0 | 2.0 | 0.00 | 0.00 | 0.00 | 83 | 1012.0 |
| 20260509022007 | 76 | 117 | 0.0 | 1.0 | 0.00 | 0.00 | 0.00 | 83 | 1012.0 |
| 20260509021007 | 76 | 140 | 0.0 | 1.0 | 0.00 | 0.00 | 0.00 | 83 | 1012.0 |
| 20260509020007 | 76 | 140 | 1.0 | 2.0 | 0.00 | 0.00 | 0.00 | 83 | 1011.9 |
| 20260509015006 | 76 | 160 | 0.0 | 3.0 | 0.00 | 0.00 | 0.00 | 84 | 1011.8 |
| 20260509014007 | 76 | 106 | 1.0 | 3.0 | 0.00 | 0.00 | 0.00 | 84 | 1011.6 |
| 20260509013009 | 77 | 113 | 1.0 | 3.0 | 0.00 | 0.00 | 0.00 | 83 | 1011.6 |
| 20260509012006 | 77 | 125 | 1.0 | 3.0 | 0.00 | 0.00 | 0.00 | 83 | 1011.6 |
| 20260509011006 | 77 | 122 | 0.0 | 3.0 | 0.00 | 0.00 | 0.00 | 83 | 1011.4 |
| 20260509010005 | 77 | 97 | 1.0 | 3.0 | 0.00 | 0.00 | 0.00 | 82 | 1011.3 |
| 20260509005006 | 78 | 110 | 1.0 | 3.0 | 0.00 | 0.00 | 0.00 | 81 | 1011.4 |
| 20260509004006 | 78 | 74 | 1.0 | 1.0 | 0.00 | 0.00 | 0.00 | 80 | 1011.4 |
| 20260509002006 | 79 | 69 | 1.0 | 3.0 | 0.00 | 0.00 | 0.00 | 77 | 1011.1 |
| 20260509000006 | 80 | 121 | 2.0 | 3.0 | 0.00 | 0.00 | 0.00 | 75 | 1010.9 |
| 20260508235005 | 81 | 95 | 2.0 | 3.0 | 0.00 | 0.00 | 0.00 | 73 | 1010.8 |
| 20260508234006 | 81 | 111 | 2.0 | 5.0 | 0.00 | 0.00 | 0.00 | 72 | 1010.5 |
| 20260508233006 | 82 | 94 | 2.0 | 6.0 | 0.00 | 0.00 | 0.00 | 71 | 1010.3 |
| 20260508232006 | 82 | 94 | 3.0 | 10.0 | 0.00 | 0.00 | 0.00 | 70 | 1010.4 |
| 20260508231007 | 82 | 99 | 5.0 | 7.0 | 0.00 | 0.00 | 0.00 | 68 | 1010.2 |
| 20260508230005 | 83 | 100 | 5.0 | 9.0 | 0.00 | 0.00 | 0.00 | 68 | 1010.3 |
| 20260508225007 | 83 | 116 | 2.0 | 7.0 | 0.00 | 0.00 | 0.00 | 68 | 1010.2 |
| 20260508224007 | 83 | 83 | 6.0 | 13.0 | 0.00 | 0.00 | 0.00 | 68 | 1010.1 |
| 20260508222006 | 84 | 84 | 7.0 | 13.0 | 0.00 | 0.00 | 0.00 | 66 | 1010.0 |
| 20260508221006 | 84 | 97 | 5.0 | 13.0 | 0.00 | 0.00 | 0.00 | 67 | 1010.0 |
| 20260508220005 | 84 | 102 | 5.0 | 12.0 | 0.00 | 0.00 | 0.00 | 68 | 1010.1 |
| 20260508215007 | 84 | 89 | 8.0 | 12.0 | 0.00 | 0.00 | 0.00 | 69 | 1010.1 |
| 20260508214007 | 84 | 73 | 7.0 | 12.0 | 0.00 | 0.00 | 0.00 | 67 | 1009.9 |
| 20260508213006 | 85 | 73 | 6.0 | 12.0 | 0.00 | 0.00 | 0.00 | 68 | 1010.1 |
| 20260508212006 | 85 | 88 | 7.0 | 13.0 | 0.00 | 0.00 | 0.00 | 67 | 1010.3 |
| 20260508211007 | 84 | 85 | 7.0 | 15.0 | 0.00 | 0.00 | 0.00 | 67 | 1010.4 |
| 20260508210006 | 85 | 115 | 5.0 | 16.0 | 0.00 | 0.00 | 0.00 | 67 | 1010.3 |
| 20260508205006 | 85 | 89 | 6.0 | 13.0 | 0.00 | 0.00 | 0.00 | 66 | 1010.4 |
| 20260508204006 | 85 | 82 | 6.0 | 13.0 | 0.00 | 0.00 | 0.00 | 66 | 1010.4 |
| 20260508202006 | 85 | 104 | 6.0 | 16.0 | 0.00 | 0.00 | 0.00 | 69 | 1010.7 |
| 20260508201006 | 85 | 97 | 7.0 | 13.0 | 0.00 | 0.00 | 0.00 | 67 | 1010.6 |
| 20260508200007 | 85 | 89 | 7.0 | 16.0 | 0.00 | 0.00 | 0.00 | 69 | 1010.9 |
| 20260508195007 | 85 | 90 | 10.0 | 15.0 | 0.00 | 0.00 | 0.00 | 67 | 1011.0 |
| 20260508194008 | 85 | 94 | 6.0 | 14.0 | 0.00 | 0.00 | 0.00 | 66 | 1011.2 |
| 20260508193005 | 85 | 73 | 8.0 | 12.0 | 0.00 | 0.00 | 0.00 | 68 | 1011.3 |
| 20260508192007 | 85 | 61 | 4.0 | 12.0 | 0.00 | 0.00 | 0.00 | 66 | 1011.6 |
| 20260508191005 | 86 | 66 | 9.0 | 16.0 | 0.00 | 0.00 | 0.00 | 65 | 1011.6 |
| 20260508190005 | 87 | 117 | 6.0 | 12.0 | 0.00 | 0.00 | 0.00 | 62 | 1011.7 |
| 20260508184007 | 87 | 99 | 3.0 | 12.0 | 0.00 | 0.00 | 0.00 | 63 | 1012.0 |
| 20260508183007 | 87 | 104 | 5.0 | 10.0 | 0.00 | 0.00 | 0.00 | 64 | 1011.9 |
| 20260508182007 | 85 | 152 | 3.0 | 9.0 | 0.00 | 0.00 | 0.00 | 68 | 1012.2 |
| 20260508181006 | 85 | 85 | 5.0 | 12.0 | 0.00 | 0.00 | 0.00 | 66 | 1012.2 |
| 20260508173006 | 88 | 342 | 2.0 | 6.0 | 0.00 | 0.00 | 0.00 | 55 | 1012.6 |
| 20260508172005 | 88 | 315 | 3.0 | 5.0 | 0.00 | 0.00 | 0.00 | 55 | 1012.7 |
| 20260508171007 | 88 | 121 | 2.0 | 5.0 | 0.00 | 0.00 | 0.00 | 54 | 1012.7 |
| 20260508170006 | 88 | 342 | 2.0 | 6.0 | 0.00 | 0.00 | 0.00 | 57 | 1013.0 |
| 20260508165005 | 87 | 311 | 2.0 | 6.0 | 0.00 | 0.00 | 0.00 | 59 | 1013.1 |
| 20260508164005 | 87 | 298 | 3.0 | 7.0 | 0.00 | 0.00 | 0.00 | 62 | 1013.2 |
| 20260508163006 | 85 | 311 | 2.0 | 8.0 | 0.00 | 0.00 | 0.00 | 64 | 1013.4 |
| 20260508162005 | 85 | 292 | 4.0 | 7.0 | 0.00 | 0.00 | 0.00 | 66 | 1013.6 |
| 20260508161006 | 84 | 276 | 2.0 | 7.0 | 0.00 | 0.00 | 0.00 | 67 | 1013.6 |
| 20260508160005 | 84 | 298 | 5.0 | 10.0 | 0.00 | 0.00 | 0.00 | 68 | 1013.9 |
| 20260508155006 | 84 | 265 | 4.0 | 10.0 | 0.00 | 0.00 | 0.00 | 69 | 1013.9 |
| 20260508154007 | 85 | 355 | 3.0 | 9.0 | 0.00 | 0.00 | 0.00 | 64 | 1013.8 |
| 20260508153006 | 85 | 206 | 2.0 | 7.0 | 0.00 | 0.00 | 0.00 | 64 | 1014.0 |
| 20260508152005 | 84 | 291 | 5.0 | 7.0 | 0.00 | 0.00 | 0.00 | 69 | 1014.0 |
| 20260508151005 | 85 | 290 | 2.0 | 7.0 | 0.00 | 0.00 | 0.00 | 68 | 1014.3 |
| 20260508150006 | 85 | 344 | 2.0 | 7.0 | 0.00 | 0.00 | 0.00 | 70 | 1014.2 |
| 20260508145007 | 83 | 311 | 3.0 | 9.0 | 0.00 | 0.00 | 0.00 | 71 | 1014.3 |
| 20260508144006 | 83 | 302 | 3.0 | 9.0 | 0.00 | 0.00 | 0.00 | 72 | 1014.2 |
| 20260508142006 | 80 | 322 | 3.0 | 10.0 | 0.00 | 0.00 | 0.00 | 77 | 1014.2 |
| 20260508140005 | 80 | 291 | 6.0 | 10.0 | 0.00 | 0.00 | 0.00 | 78 | 1014.2 |
| 20260508135005 | 79 | 267 | 5.0 | 9.0 | 0.00 | 0.00 | 0.00 | 79 | 1014.2 |
| 20260508134005 | 79 | 313 | 5.0 | 9.0 | 0.00 | 0.00 | 0.00 | 79 | 1014.2 |
| 20260508132006 | 77 | 302 | 4.0 | 7.0 | 0.00 | 0.00 | 0.00 | 80 | 1014.1 |
| 20260508131006 | 77 | 291 | 2.0 | 5.0 | 0.00 | 0.00 | 0.00 | 81 | 1014.1 |
| 20260508124005 | 74 | 274 | 3.0 | 5.0 | 0.00 | 0.00 | 0.00 | 83 | 1013.9 |
| 20260508123005 | 74 | 259 | 2.0 | 3.0 | 0.00 | 0.00 | 0.00 | 83 | 1013.8 |
| 20260508122006 | 73 | 258 | 4.0 | 5.0 | 0.00 | 0.00 | 0.00 | 83 | 1013.8 |
| 20260508121006 | 72 | 261 | 2.0 | 5.0 | 0.00 | 0.00 | 0.00 | 83 | 1013.8 |
| 20260508115006 | 70 | 286 | 1.0 | 2.0 | 0.00 | 0.00 | 0.00 | 82 | 1013.6 |
| 20260508114006 | 69 | 237 | 0.0 | 2.0 | 0.00 | 0.00 | 0.00 | 79 | 1013.4 |
| 20260508113006 | 68 | 288 | 0.0 | 1.0 | 0.00 | 0.00 | 0.00 | 73 | 1013.2 |
| 20260508112006 | 67 | 288 | 0.0 | 2.0 | 0.00 | 0.00 | 0.00 | 75 | 1013.1 |
| 20260508111006 | 67 | 289 | 0.0 | 2.0 | 0.00 | 0.00 | 0.00 | 71 | 1013.1 |
| 20260508110005 | 66 | 286 | 0.0 | 1.0 | 0.00 | 0.00 | 0.00 | 69 | 1013.0 |
| 20260508105006 | 66 | 287 | 0.0 | 1.0 | 0.00 | 0.00 | 0.00 | 69 | 1012.7 |
| 20260508104006 | 65 | 287 | 0.0 | 1.0 | 0.00 | 0.00 | 0.00 | 71 | 1012.8 |
| 20260508101006 | 64 | 287 | 0.0 | 1.0 | 0.00 | 0.00 | 0.00 | 73 | 1012.2 |
| 20260508095006 | 64 | 287 | 0.0 | 0.0 | 0.00 | 0.00 | 0.00 | 78 | 1012.0 |
| 20260508094006 | 64 | 287 | 0.0 | 0.0 | 0.00 | 0.00 | 0.00 | 77 | 1011.9 |
| 20260508093006 | 64 | 287 | 0.0 | 1.0 | 0.00 | 0.00 | 0.00 | 78 | 1011.9 |
| 20260508092006 | 64 | 287 | 0.0 | 0.0 | 0.00 | 0.00 | 0.00 | 80 | 1011.8 |
| 20260508085006 | 64 | 287 | 0.0 | 0.0 | 0.00 | 0.00 | 0.00 | 81 | 1011.7 |
| 20260508084006 | 64 | 287 | 0.0 | 1.0 | 0.00 | 0.00 | 0.00 | 80 | 1011.8 |
| 20260508083008 | 64 | 287 | 0.0 | 0.0 | 0.00 | 0.00 | 0.00 | 80 | 1011.7 |
| 20260508082006 | 64 | 287 | 0.0 | 1.0 | 0.00 | 0.00 | 0.00 | 83 | 1011.9 |
| 20260508081007 | 64 | 287 | 0.0 | 0.0 | 0.00 | 0.00 | 0.00 | 84 | 1011.9 |
| 20260508080005 | 65 | 287 | 0.0 | 0.0 | 0.00 | 0.00 | 0.00 | 84 | 1011.9 |
| 20260508075007 | 65 | 287 | 0.0 | 0.0 | 0.00 | 0.00 | 0.00 | 84 | 1012.0 |
| 20260508074007 | 65 | 287 | 0.0 | 1.0 | 0.00 | 0.00 | 0.00 | 84 | 1012.1 |
| 20260508073005 | 65 | 287 | 1.0 | 1.0 | 0.00 | 0.00 | 0.00 | 84 | 1012.1 |
| 20260508071006 | 66 | 287 | 0.0 | 0.0 | 0.00 | 0.00 | 0.00 | 84 | 1012.0 |
| 20260508070006 | 66 | 287 | 0.0 | 0.0 | 0.00 | 0.00 | 0.00 | 84 | 1011.9 |
| 20260508065006 | 67 | 287 | 0.0 | 1.0 | 0.00 | 0.00 | 0.00 | 84 | 1011.9 |
| 20260508064005 | 68 | 287 | 1.0 | 1.0 | 0.00 | 0.00 | 0.00 | 84 | 1012.0 |
| 20260508061007 | 70 | 287 | 0.0 | 0.0 | 0.00 | 0.00 | 0.00 | 80 | 1012.2 |
| 20260508060006 | 71 | 284 | 0.0 | 1.0 | 0.00 | 0.00 | 0.00 | 77 | 1012.2 |
| 20260508053005 | 72 | 276 | 1.0 | 3.0 | 0.00 | 0.00 | 0.00 | 73 | 1012.4 |